Regional Weather Roundup
Issued by NWS Tiyan, Guam

Home | Current Version | Previous Version | Text Only | Print | Product List | Glossary On
Versions: 1 2 3 4 5 6 7 8 9 10 11 12 13 14 15 16 17 18 19 20 21 22 23 24 25 26 27 28
000
ASGM40 PGUM 191012
RWRGUM
WEATHER ROUNDUP FOR THE MARIANAS
NATIONAL WEATHER SERVICE TIYAN GU
800 PM GSST SAT APR 19 2014

GUZ001>004-191100-
MARIANA ISLANDS-

CITY           SKY/WX    TMP DP  RH WIND       PRES   REMARKS
GUAM AIRPORT   PTCLDY    82  77  83 SE8       29.81R HX  91
ANDERSEN AFB   PTCLDY    81  77  89 SE14      29.81R
ROTA AIRPORT   PTCLDY    81  77  89 SE10      29.81R
TINIAN AP      PTCLDY    81  75  83 E5        29.80R
SAIPAN AP      MOCLDY    81  77  89 SE8       29.81R

$$




USA.gov is the U.S. government's official web portal to all federal, state and local government web resources and services.